Temperature
8 8 7 7 7 7 6 6 6 6 6 6 6 6 6 5 5 5 5 5 4 4 4 4 4 3 3 3 3 2 2 1 0 1 1 1 1 1 1 1 1 1 1
7 7 7 7 6 6 6 6 6 6 6 6 5 5 5 5 5 5 4 4 4 4 4 3 3 3 3 2 2 2 1 1 0 0 0 0 0 0 0 0 0 0 0
7 7 6 6 6 6 6 6 6 6 5 5 5 5 5 5 4 4 4 4 4 3 3 3 3 2 2 2 2 1 1 0 0 -0 -0 -0 -0 -0 -0 -0 -0 -0 -0
6 6 6 6 6 6 5 5 5 5 5 5 5 5 4 4 4 4 3 3 3 3 3 3 2 2 2 1 1 1 0 -0 -1 -1 -1 -1 -1 -1 -1 -1 -1 -1 -1
6 5 5 5 5 5 5 5 5 5 5 4 4 4 4 4 4 3 3 3 3 2 2 2 2 2 2 1 1 0 -1 -1 -1 -2 -2 -2 -2 -2 -2 -2 -2 -2 -2
5 5 5 5 5 5 5 4 4 4 4 4 4 4 4 3 3 3 3 2 2 2 2 2 2 1 1 1 1 -0 -1 -1 -2 -2 -2 -2 -2 -2 -2 -3 -3 -3 -3
5 5 4 4 4 4 4 4 4 4 4 4 3 3 3 3 3 3 2 2 2 2 1 1 1 1 1 0 0 -0 -1 -1 -2 -2 -3 -3 -3 -3 -3 -3 -3 -4 -3
4 4 4 4 4 4 4 3 3 3 3 3 3 3 3 3 2 2 2 2 1 1 1 1 1 0 0 -0 -1 -1 -1 -2 -2 -3 -3 -3 -3 -3 -4 -4 -4 -4 -4
4 4 4 3 3 3 3 3 3 3 3 3 2 2 2 2 2 2 1 1 1 1 1 1 0 0 -0 -1 -2 -2 -2 -2 -2 -3 -3 -3 -4 -4 -4 -4 -4 -5 -5
4 3 3 3 3 3 3 2 2 2 2 2 2 2 2 2 1 1 1 0 0 0 0 0 -0 -0 -1 -1 -2 -3 -3 -3 -3 -3 -4 -4 -4 -4 -4 -5 -5 -5 -5
3 3 3 2 2 2 2 2 2 2 2 2 2 1 1 1 1 1 0 -0 -0 -1 -1 -1 -1 -1 -1 -2 -2 -3 -3 -3 -4 -4 -4 -4 -4 -5 -5 -5 -5 -5 -6
3 3 2 2 2 2 2 2 1 1 1 1 1 1 1 0 0 0 -0 -1 -1 -1 -1 -1 -2 -2 -2 -2 -3 -3 -3 -4 -4 -5 -5 -5 -5 -5 -5 -5 -5 -5 -6
2 2 2 2 2 1 1 1 1 1 0 0 -0 -0 -0 -0 -0 -1 -1 -1 -2 -2 -2 -2 -2 -2 -3 -3 -3 -3 -4 -4 -5 -5 -5 -5 -5 -5 -5 -5 -6 -6 -6
2 2 1 1 1 1 1 1 0 0 -0 -1 -1 -1 -1 -1 -1 -1 -2 -2 -2 -2 -3 -3 -3 -3 -3 -3 -4 -4 -4 -5 -5 -5 -5 -5 -5 -6 -6 -6 -6 -6 -6
1 1 1 1 1 1 0 0 -0 -0 -1 -1 -1 -1 -2 -2 -2 -2 -3 -3 -3 -3 -3 -4 -3 -4 -4 -4 -4 -5 -5 -5 -5 -5 -6 -6 -6 -6 -6 -6 -6 -7 -7
1 1 1 0 0 0 -0 -0 -0 -0 -1 -1 -1 -2 -2 -2 -2 -3 -3 -3 -4 -4 -4 -4 -4 -4 -4 -5 -5 -5 -5 -6 -6 -6 -6 -6 -6 -6 -7 -7 -7 -7 -7
0 0 0 -0 -0 -1 -1 -1 -1 -1 -1 -1 -2 -2 -2 -3 -3 -3 -3 -4 -4 -4 -4 -4 -4 -4 -4 -5 -5 -5 -6 -6 -6 -6 -6 -7 -7 -7 -7 -7 -7 -7 -8
-0 -0 -0 -1 -1 -1 -1 -2 -2 -2 -2 -2 -2 -2 -3 -3 -3 -3 -4 -4 -4 -4 -5 -5 -5 -5 -5 -5 -6 -6 -6 -6 -6 -6 -7 -7 -7 -7 -7 -7 -8 -8 -8
-0 -1 -1 -1 -1 -1 -2 -2 -2 -3 -3 -3 -3 -2 -3 -3 -3 -4 -4 -5 -5 -5 -5 -5 -5 -5 -5 -6 -6 -6 -6 -6 -7 -7 -7 -7 -7 -7 -8 -8 -8 -8 -8
-1 -1 -1 -2 -2 -2 -2 -3 -3 -3 -3 -4 -4 -4 -4 -4 -4 -4 -4 -5 -5 -5 -5 -5 -5 -6 -6 -6 -6 -6 -7 -7 -7 -7 -7 -7 -7 -8 -8 -8 -8 -8 -8
-1 -1 -2 -2 -2 -3 -3 -3 -3 -4 -4 -4 -4 -4 -4 -5 -5 -5 -5 -5 -5 -6 -6 -6 -6 -6 -6 -6 -7 -7 -7 -7 -7 -7 -7 -7 -7 -8 -8 -8 -8 -8 -9
-2 -2 -2 -2 -3 -3 -3 -4 -4 -4 -4 -5 -4 -5 -5 -5 -5 -5 -5 -6 -6 -6 -6 -6 -6 -6 -7 -7 -7 -7 -7 -7 -7 -7 -8 -8 -8 -8 -8 -8 -8 -9 -9
-2 -2 -2 -3 -3 -3 -4 -4 -4 -5 -5 -5 -5 -5 -5 -5 -6 -6 -6 -6 -6 -6 -6 -7 -7 -7 -7 -7 -7 -7 -7 -7 -8 -8 -8 -8 -8 -8 -8 -8 -9 -9 -9
-2 -3 -3 -3 -3 -4 -4 -5 -5 -5 -5 -5 -5 -6 -6 -6 -6 -6 -6 -6 -6 -6 -6 -7 -7 -7 -7 -7 -7 -7 -7 -8 -8 -8 -8 -8 -8 -8 -9 -9 -9 -9 -9
-3 -3 -3 -4 -4 -4 -5 -5 -5 -5 -5 -6 -6 -6 -6 -6 -6 -6 -6 -6 -6 -6 -7 -7 -7 -7 -7 -7 -7 -8 -8 -8 -8 -8 -8 -8 -8 -9 -9 -9 -9 -9 -9
-3 -3 -4 -4 -4 -5 -5 -5 -5 -5 -6 -6 -6 -6 -6 -7 -7 -7 -7 -7 -7 -7 -7 -7 -7 -7 -7 -7 -8 -8 -8 -8 -8 -8 -8 -9 -9 -9 -9 -9 -9 -9 -10
Wind_Speed
0 1 2 2 3 3 3 4 4 4 4 4 4 5 5 5 5 6 6 6 7 7 6 7 7 7 6 5 5 6 6 7 9 8 7 7 8 7 7 7 8 8 7
1 2 2 2 3 3 4 4 4 4 4 4 5 5 5 6 6 6 7 7 7 8 8 8 8 6 8 7 6 7 7 8 8 10 8 7 8 8 8 8 7 8 8
1 2 2 2 3 3 3 4 4 4 4 4 5 5 6 6 6 7 7 8 8 9 9 9 9 8 9 7 8 8 7 7 8 9 9 7 7 6 8 8 8 7 7
2 2 2 2 3 3 3 3 4 4 4 5 5 6 6 6 7 7 8 8 9 9 9 9 10 9 10 9 8 9 8 8 8 8 8 8 7 7 6 7 7 6 6
2 3 3 3 3 3 3 4 4 4 5 5 6 6 6 6 6 7 7 8 9 10 10 10 10 11 11 10 9 8 8 8 8 8 8 8 7 6 6 6 7 7 7
3 3 3 3 3 3 4 4 4 5 5 5 6 6 7 6 8 10 9 9 9 10 11 10 10 11 13 15 15 14 12 10 9 9 8 9 9 8 7 6 7 7 6
3 4 4 4 4 4 4 4 5 5 5 6 7 7 8 8 10 11 12 10 10 11 11 10 9 9 11 11 12 14 15 16 15 12 11 11 10 8 8 8 8 8 8
4 4 4 4 4 4 5 5 6 6 6 6 7 8 8 9 11 12 12 11 11 11 11 12 12 11 10 11 11 11 12 12 13 12 11 11 9 8 8 9 9 9 9
5 5 4 4 5 5 6 6 6 6 6 7 7 8 9 10 11 12 12 9 9 11 11 11 12 12 13 14 12 12 12 11 12 14 14 13 13 13 10 7 7 7 7
5 5 5 5 5 6 7 7 6 6 7 7 8 9 10 11 12 13 12 8 9 10 10 10 13 14 14 14 12 12 12 11 9 9 11 12 11 12 12 10 8 7 6
5 5 5 6 6 7 7 6 6 6 7 8 9 10 10 11 12 13 13 8 9 10 9 9 9 12 15 15 14 12 13 11 9 9 8 8 7 7 7 8 7 7 7
4 5 6 6 6 6 7 7 7 7 8 9 9 10 9 9 10 11 13 13 12 11 10 9 9 12 14 15 13 12 14 12 8 8 7 7 7 6 6 6 7 8 8
5 6 6 6 6 6 7 7 7 7 7 8 8 9 9 8 8 12 13 14 14 11 10 12 13 14 14 12 13 14 12 9 7 8 8 8 7 6 5 5 6 7 8
6 7 6 6 7 7 6 6 7 7 8 8 8 9 9 9 8 7 7 9 11 11 10 11 13 13 11 11 11 10 8 8 8 8 7 6 5 5 6 5 5 5 6
7 7 7 7 7 7 7 7 8 9 9 10 9 9 10 11 11 13 11 9 9 9 9 8 7 7 7 7 7 7 7 7 8 7 7 6 6 6 6 5 5 5 6
7 7 6 6 6 7 7 8 10 12 14 16 16 15 13 15 18 18 18 17 17 15 11 9 9 8 8 8 7 7 7 7 7 7 7 6 6 6 6 5 5 6 7
8 7 6 6 7 7 7 8 9 9 12 14 16 16 16 17 18 18 18 17 17 15 11 9 9 8 8 7 7 7 7 7 6 7 7 7 6 6 6 6 6 6 7
8 8 8 7 7 7 8 8 8 9 10 10 10 13 15 16 16 16 16 13 10 9 8 9 9 8 8 7 7 7 7 7 6 7 7 7 7 7 7 7 7 7 7
7 7 7 7 7 8 8 8 8 9 10 10 10 10 11 13 14 14 12 8 9 8 8 8 8 7 7 7 7 7 7 7 7 7 7 7 7 7 7 7 7 8 8
7 9 8 7 7 7 7 8 8 9 9 10 10 9 8 8 8 8 7 7 7 8 8 7 7 7 7 7 7 7 7 7 7 7 7 6 6 7 7 8 7 7 6
6 7 8 8 8 8 8 8 9 9 9 10 10 10 12 9 9 9 8 7 7 8 7 7 7 7 7 6 6 7 8 7 7 7 6 6 6 6 6 6 6 6 6
6 7 7 7 8 8 8 8 9 9 10 11 10 10 13 10 9 9 8 8 8 7 7 7 7 7 6 6 6 7 7 7 7 6 6 6 6 6 6 6 6 6 6
7 7 8 8 8 10 10 9 9 9 10 10 10 9 9 8 8 8 8 8 7 7 6 6 7 6 6 6 6 7 7 7 6 6 6 6 6 6 6 6 7 7 6
7 8 8 8 8 8 9 9 9 9 10 10 10 9 9 9 9 9 8 7 7 7 6 6 6 7 8 6 6 6 7 6 6 6 8 7 6 6 6 6 6 7 7
7 8 8 8 9 9 9 9 10 10 10 9 9 9 9 9 8 8 7 7 7 7 7 6 5 6 7 8 7 6 7 9 8 6 6 6 7 7 6 6 6 6 6
8 9 9 8 9 9 9 9 10 10 9 9 8 8 8 8 8 7 7 6 6 6 6 5 6 6 7 6 7 8 9 10 9 9 7 6 6 6 6 6 6 6 6
Wind_Direction
242 260 228 234 237 242 246 255 258 257 255 257 260 257 254 251 246 245 246 248 248 252 249 249 252 254 252 250 247 248 249 251 262 273 274 277 277 280 287 287 289 290 291
288 281 259 244 242 247 256 264 265 266 268 264 261 259 259 257 253 251 253 251 251 253 253 251 251 250 249 251 248 248 250 249 257 270 275 276 276 280 285 287 286 283 284
288 277 272 257 252 257 267 273 274 275 277 270 260 260 263 262 259 255 255 256 254 254 255 254 253 251 250 249 248 251 252 253 253 263 272 276 277 279 284 282 283 281 284
272 270 273 275 274 276 281 278 278 277 276 275 269 265 264 262 259 257 257 257 257 257 256 254 254 251 251 252 251 251 251 253 253 257 265 270 272 275 278 283 286 284 285
264 269 277 284 284 282 281 281 281 279 277 277 275 271 268 264 259 261 261 261 262 262 259 255 252 249 250 251 252 251 249 250 252 255 260 265 266 268 269 277 282 290 285
258 267 276 277 279 280 283 285 283 282 281 277 273 274 273 266 262 264 266 266 264 263 263 262 257 251 248 248 249 250 250 251 252 253 258 260 266 268 271 274 279 285 284
261 270 273 276 280 286 290 286 283 283 283 280 277 275 274 272 269 271 268 269 267 264 263 264 262 254 249 250 250 249 249 249 250 254 259 261 267 268 271 271 270 274 276
259 266 271 275 280 286 285 282 281 280 278 279 279 278 277 275 273 274 275 271 268 264 262 261 261 260 251 248 252 253 252 250 248 250 255 261 263 265 263 265 273 276 276
260 267 272 274 277 279 279 280 282 281 279 279 279 277 277 278 274 275 275 274 268 267 264 260 259 260 255 249 250 253 256 255 250 249 255 261 263 262 261 261 262 265 272
265 271 273 270 269 272 275 280 281 279 279 281 278 276 275 277 276 275 274 270 270 272 270 264 257 257 259 253 249 251 254 257 255 252 251 254 256 256 252 248 252 255 263
269 271 272 270 270 273 276 275 276 277 278 277 278 278 276 275 278 274 272 268 269 273 273 270 265 260 260 257 253 252 254 259 259 254 253 251 250 250 247 243 242 244 248
268 269 271 273 273 272 273 276 276 275 277 280 282 284 281 277 274 275 273 269 271 271 272 272 268 265 264 262 258 252 255 256 253 250 248 247 246 245 244 244 243 244 248
267 269 273 276 274 271 271 274 277 274 273 278 281 283 286 285 280 274 276 275 273 270 271 271 270 269 268 264 255 254 253 249 245 246 248 248 246 244 241 242 243 245 250
265 271 274 274 276 275 271 268 268 270 273 276 278 281 285 285 283 281 278 279 276 272 272 272 268 265 259 255 256 253 245 242 243 247 251 250 242 233 232 233 242 243 250
264 268 270 269 272 275 273 268 267 268 268 274 277 279 282 283 282 282 284 282 279 274 278 272 263 259 256 252 250 247 242 240 242 243 245 245 241 236 235 233 238 241 244
261 265 267 269 272 274 278 282 263 260 272 271 271 273 275 274 283 285 284 282 280 276 273 264 259 255 253 252 250 248 244 240 240 238 238 239 239 238 237 232 232 237 244
256 263 266 267 269 271 274 278 288 284 271 271 271 273 273 279 283 285 285 284 280 275 265 259 258 256 254 250 246 247 248 242 237 236 237 237 237 238 235 234 233 237 243
259 260 259 264 266 269 271 273 276 284 291 290 282 278 280 282 284 285 285 285 276 266 256 255 256 256 254 252 249 246 244 241 236 235 235 234 233 234 235 234 233 236 242
260 261 261 266 267 269 271 272 272 275 278 284 290 290 286 286 286 282 280 272 269 266 260 256 255 256 254 251 249 244 241 241 239 234 233 231 229 231 234 234 235 236 239
259 254 257 266 269 270 269 270 272 274 277 280 282 287 292 290 285 282 274 268 266 266 264 261 259 256 253 251 248 244 241 239 236 235 233 230 228 228 232 233 234 235 236
264 265 259 265 266 268 269 270 272 273 275 278 279 281 282 282 279 278 274 269 266 267 266 262 259 256 251 248 247 244 240 238 235 232 231 229 226 226 229 230 231 233 237
262 265 265 266 269 269 270 271 272 273 275 277 282 284 283 278 274 273 273 271 269 268 265 262 260 256 250 246 245 244 241 238 234 228 226 225 224 225 226 227 228 230 233
260 264 267 268 269 272 274 273 273 274 275 277 280 282 281 277 274 272 272 273 273 271 266 259 258 257 252 245 242 241 242 239 232 224 221 223 223 225 225 226 226 230 233
260 263 267 270 272 271 273 274 275 274 276 278 278 278 278 277 276 274 273 273 272 270 266 259 256 254 252 250 247 242 239 234 226 223 220 221 223 225 225 226 230 233 237
263 265 267 269 270 271 273 274 275 275 275 276 277 276 276 277 276 275 273 271 270 268 265 261 257 253 250 249 247 243 237 231 227 221 217 220 222 224 227 230 233 237 241
267 268 268 269 269 269 270 272 273 275 276 276 275 274 274 275 274 274 272 270 268 267 264 262 257 254 254 252 248 241 238 235 231 227 223 222 221 225 227 231 234 237 242
Height
1505 1505 1504 1504 1504 1503 1503 1502 1502 1501 1500 1499 1498 1498 1497 1496 1495 1494 1493 1492 1491 1490 1488 1487 1486 1485 1483 1482 1481 1479 1478 1477 1474 1472 1471 1469 1467 1465 1462 1460 1458 1456 1454
1503 1502 1501 1501 1500 1500 1499 1498 1498 1497 1496 1495 1494 1493 1492 1491 1490 1489 1488 1487 1486 1484 1483 1482 1481 1479 1478 1477 1475 1474 1473 1471 1470 1467 1465 1464 1462 1460 1458 1456 1454 1452 1450
1500 1499 1498 1497 1497 1496 1496 1495 1494 1493 1492 1491 1490 1489 1488 1487 1485 1484 1483 1482 1480 1479 1478 1476 1475 1474 1472 1471 1470 1468 1467 1466 1464 1462 1460 1459 1457 1456 1454 1451 1449 1447 1445
1497 1496 1495 1494 1494 1493 1492 1491 1490 1489 1488 1487 1486 1484 1483 1482 1480 1479 1478 1476 1475 1473 1472 1470 1469 1468 1467 1466 1464 1463 1462 1460 1459 1457 1455 1453 1452 1450 1449 1447 1445 1443 1441
1494 1493 1492 1491 1490 1489 1488 1487 1486 1485 1484 1483 1481 1479 1478 1477 1475 1474 1472 1471 1469 1467 1466 1465 1463 1462 1461 1460 1458 1457 1456 1454 1453 1451 1450 1448 1447 1446 1444 1442 1440 1438 1436
1491 1490 1489 1488 1487 1486 1485 1483 1482 1481 1479 1478 1476 1475 1473 1472 1470 1469 1467 1465 1463 1461 1460 1458 1457 1455 1454 1453 1452 1450 1450 1448 1447 1446 1444 1443 1442 1441 1439 1437 1436 1433 1431
1488 1487 1486 1485 1483 1482 1481 1479 1478 1476 1475 1473 1472 1470 1468 1467 1465 1463 1461 1459 1457 1455 1453 1451 1450 1449 1448 1446 1445 1444 1442 1441 1441 1440 1438 1437 1436 1435 1434 1432 1431 1429 1427
1484 1483 1482 1481 1479 1478 1477 1475 1474 1472 1470 1468 1467 1465 1463 1461 1459 1458 1455 1453 1451 1449 1447 1445 1443 1442 1441 1440 1438 1437 1435 1435 1434 1433 1432 1431 1430 1429 1428 1427 1426 1424 1422
1480 1479 1478 1477 1475 1474 1472 1471 1469 1467 1465 1463 1461 1459 1457 1455 1454 1452 1449 1446 1444 1442 1440 1438 1437 1435 1434 1433 1432 1430 1428 1428 1427 1426 1425 1424 1424 1423 1422 1421 1420 1418 1416
1477 1475 1474 1473 1471 1470 1468 1466 1464 1462 1460 1458 1456 1454 1451 1449 1447 1445 1443 1440 1437 1435 1433 1431 1429 1428 1427 1426 1425 1423 1422 1421 1421 1420 1419 1418 1417 1416 1416 1415 1414 1413 1411
1472 1471 1470 1468 1467 1465 1463 1461 1460 1457 1455 1452 1450 1447 1445 1443 1440 1439 1436 1434 1431 1428 1426 1424 1422 1421 1420 1419 1418 1417 1416 1415 1414 1413 1412 1411 1411 1410 1409 1409 1408 1407 1406
1468 1467 1465 1464 1462 1461 1459 1456 1454 1452 1449 1446 1443 1441 1438 1436 1434 1431 1429 1427 1425 1422 1419 1417 1415 1414 1413 1412 1411 1410 1410 1409 1408 1407 1406 1405 1405 1404 1403 1403 1402 1401 1400
1463 1462 1461 1459 1458 1456 1454 1451 1449 1446 1443 1440 1437 1434 1432 1429 1427 1425 1422 1420 1418 1415 1412 1411 1409 1407 1406 1405 1404 1404 1403 1403 1402 1401 1400 1399 1399 1398 1398 1397 1396 1395 1394
1459 1457 1456 1454 1452 1450 1448 1446 1443 1440 1437 1434 1431 1428 1425 1422 1420 1418 1415 1413 1410 1408 1406 1404 1402 1401 1399 1398 1398 1397 1396 1396 1396 1395 1394 1393 1393 1392 1392 1391 1391 1390 1389
1454 1452 1451 1449 1447 1444 1442 1440 1437 1435 1432 1429 1426 1423 1419 1416 1413 1412 1409 1406 1404 1402 1399 1397 1395 1394 1393 1392 1391 1391 1390 1390 1389 1389 1388 1388 1387 1387 1386 1386 1385 1385 1384
1448 1447 1445 1443 1441 1438 1436 1433 1430 1428 1425 1423 1419 1417 1412 1410 1407 1404 1402 1399 1397 1395 1393 1391 1389 1388 1387 1386 1385 1384 1384 1383 1383 1382 1382 1382 1381 1381 1380 1380 1380 1379 1378
1442 1441 1439 1437 1435 1432 1429 1426 1423 1420 1418 1415 1413 1409 1406 1403 1400 1397 1394 1392 1390 1388 1386 1384 1383 1382 1381 1380 1379 1378 1377 1377 1377 1376 1376 1376 1375 1375 1375 1374 1374 1374 1373
1437 1435 1433 1431 1428 1426 1423 1420 1417 1413 1410 1407 1405 1402 1399 1396 1393 1390 1388 1385 1383 1381 1380 1378 1377 1376 1375 1374 1373 1372 1371 1371 1371 1370 1370 1370 1370 1369 1369 1369 1368 1368 1368
1430 1429 1427 1424 1422 1419 1416 1414 1411 1407 1404 1400 1397 1395 1393 1389 1386 1384 1382 1379 1377 1375 1374 1372 1371 1370 1369 1368 1367 1366 1365 1365 1365 1364 1364 1364 1364 1364 1363 1363 1363 1363 1363
1424 1422 1420 1418 1415 1413 1410 1407 1404 1401 1398 1394 1391 1388 1386 1383 1380 1377 1376 1373 1371 1369 1368 1366 1365 1364 1363 1362 1361 1360 1360 1359 1359 1358 1358 1358 1358 1358 1358 1358 1358 1358 1358
1418 1416 1414 1411 1409 1406 1403 1400 1397 1395 1391 1388 1385 1383 1380 1377 1374 1372 1370 1367 1365 1363 1362 1360 1359 1358 1356 1356 1355 1354 1354 1353 1353 1353 1353 1353 1353 1353 1353 1353 1353 1353 1353
1411 1409 1407 1404 1402 1399 1396 1394 1391 1388 1385 1382 1379 1376 1374 1371 1368 1365 1363 1361 1359 1358 1356 1354 1353 1352 1351 1350 1349 1349 1348 1348 1348 1348 1348 1348 1348 1348 1348 1348 1348 1348 1348
1405 1403 1400 1397 1395 1392 1390 1387 1384 1381 1378 1375 1373 1370 1367 1365 1362 1360 1357 1355 1354 1352 1350 1349 1347 1346 1346 1345 1344 1344 1343 1343 1343 1343 1343 1343 1343 1343 1344 1344 1344 1344 1344
1399 1396 1393 1391 1388 1385 1383 1380 1377 1375 1372 1369 1366 1364 1361 1359 1356 1354 1352 1350 1348 1346 1345 1344 1342 1341 1341 1340 1339 1339 1338 1338 1338 1338 1339 1339 1339 1339 1339 1339 1339 1339 1339
1392 1389 1387 1384 1381 1379 1376 1373 1371 1368 1366 1363 1360 1358 1355 1353 1350 1348 1346 1344 1343 1341 1340 1339 1338 1337 1336 1335 1335 1334 1334 1334 1334 1334 1334 1334 1335 1335 1335 1335 1335 1335 1335
1385 1383 1380 1377 1375 1372 1369 1367 1364 1362 1359 1356 1354 1352 1349 1347 1345 1343 1341 1339 1338 1337 1335 1334 1333 1332 1331 1331 1330 1330 1329 1329 1330 1330 1330 1330 1331 1331 1331 1331 1331 1331 1331